星链-2178 (STARLINK-2178 )

导读 | 星芒AI

STARLINK-2178 是 SpaceX Starlink 项目中的一颗低轨通信卫星,旨在为全球用户提供高速互联网服务。该卫星于2023年发射,运行在约550公里高的近地轨道,采用先进的星间激光通信技术,提高数据传输效率。Starlink 卫星群由数千颗卫星组成,致力于改善偏远地区的网络接入。STARLINK-2178 与其他卫星协同工作,确保全球范围内的稳定连接,并支持实时通信和低延迟应用。

基本信息
目录编号:
47760
目录名称:
STARLINK-2178
国际标识:
2021-017AQ
轨道中心:
EARTH
卫星名称:
星链-2178
卫星全名:
星链-2178 (STARLINK-2178 )
卫星状态:
在轨 (已飞行1701 天)
发射日期:
2021-03-04 UTC
国别 :
美国 (US)
星等 :
--
轨道信息
数据来源 国际轨道数据 AOE轨道数据
星历时间 2025-10-29T10:41:04+0800
1天前
查看轨道信息
2025-10-30T08:00:00+0800
7小时前
查看轨道信息
半长轴 6925.353km 6925.328km
偏心率 0.0001262 0.0001164
轨道倾角 53.054° 53.053°
近地点辐角 83.177° 98.931°
升交点赤经 92.293° 88.308°
平近点角 276.936° 40.352°
近地点 546.344km 546.386km
远地点 548.092km 548km
周期 95.592分钟 95.592分钟
每日圈数 15.063988 15.064069
详细信息
固有亮度:
5
最大亮度:
2.5
卫星平台:
Starlink V1.0
覆盖范围:
全球
运营商:
太空探索技术公司
运营商所在国:
美国
制造商(研发单位):
太空探索技术公司
制造商所在国:
美国
使用方式:
暂无
卫星简介
星链(Starlink)计划是由太空探索技术公司(SpaceX)提出的一个巨型低轨卫星互联网星座项目,计划在2019年至2024年间在太空搭建由约1.2万颗卫星组成的“星链”网络,其中1584颗将部署在地球上空550千米处的近地轨道,并从2020年开始工作。该卫星仍在工作。
2D轨道图
3D轨道图
轨道高度分析图
轨道倾角分析图
轨道综合分析图
查看轨道综合分析图